EW2612 Weather Reports


Display with metric or nautical units.
time (UTC)temp
F
wind
direction
speed
MPH
gust
MPH
rain 1hr
in
rain 24hr
in
rain mn
in
humidity
%
barometer
mb
20260506210042 63 10 1.0 0.0 0.00 0.00 0.01 72 1012.3
20260506204539 63 309 2.0 0.0 0.00 0.00 0.01 70 1012.6
20260506203037 63 34 2.0 0.0 0.00 0.00 0.01 71 1012.5
20260506201542 63 292 2.0 0.0 0.00 0.00 0.01 73 1012.6
20260506200037 61 24 3.0 0.0 0.00 0.00 0.01 74 1013.1
20260506194535 60 331 3.0 0.0 0.00 0.00 0.01 76 1013.3
20260506193034 59 38 2.0 0.0 0.00 0.00 0.01 78 1013.5
20260506191533 58 323 1.0 0.0 0.00 0.00 0.01 80 1013.5
20260506190031 58 42 0.0 0.0 0.00 0.00 0.01 82 1013.6
20260506184533 57 317 1.0 0.0 0.00 0.00 0.01 82 1013.9
20260506183032 56 324 1.0 0.0 0.00 0.00 0.01 83 1014.0
20260506181529 56 342 3.0 0.0 0.00 0.00 0.01 84 1013.4
20260506180032 56 341 3.0 0.0 0.00 0.00 0.01 85 1012.5
20260506174533 55 340 2.0 0.0 0.00 0.00 0.01 88 1012.4
20260506173027 54 350 1.0 0.0 0.00 0.00 0.01 88 1012.9
20260506171537 54 349 1.0 0.0 0.00 0.00 0.01 89 1013.1
20260506170025 54 28 2.0 0.0 0.00 0.00 0.01 89 1012.8
20260506164525 54 315 2.0 0.0 0.00 0.00 0.01 89 1013.1
20260506163023 54 323 1.0 0.0 0.00 0.00 0.01 89 1013.1
20260506161524 54 14 3.0 0.0 0.00 0.00 0.01 89 1013.0
20260506160018 54 5 2.0 0.0 0.00 0.00 0.01 89 1012.8
20260506154519 54 44 1.0 0.0 0.00 0.00 0.00 89 1012.6
20260506153015 54 5 3.0 0.0 0.00 0.00 0.00 88 1012.0
20260506151516 53 5 1.0 0.0 0.00 0.00 0.00 88 1012.7
20260506150007 53 263 1.0 0.0 0.00 0.00 0.00 86 1014.4
20260506144506 54 312 0.0 0.0 0.00 0.00 0.00 85 1014.7
20260506143006 53 311 1.0 0.0 0.00 0.00 0.00 84 1013.9
20260506141502 54 46 2.0 0.0 0.00 0.00 0.00 83 1012.4
20260506140104 53 305 2.0 0.0 0.00 0.00 0.00 82 1012.5
20260506134557 54 304 2.0 0.0 0.00 0.00 0.00 82 1012.9
20260506133054 54 355 2.0 0.0 0.00 0.00 0.00 81 1012.3
20260506131605 54 38 3.0 0.0 0.00 0.00 0.00 80 1012.1
20260506130051 55 5 2.0 0.0 0.00 0.00 0.00 79 1011.8
20260506124546 55 341 1.0 0.0 0.00 0.00 0.00 77 1011.4
20260506123045 55 41 3.0 0.0 0.00 0.00 0.00 76 1011.3
20260506121539 56 304 1.0 0.0 0.00 0.00 0.00 77 1011.2
20260506120037 56 329 2.0 0.0 0.00 0.00 0.00 77 1010.9
20260506114541 56 329 2.0 0.0 0.00 0.00 0.00 76 1010.8
20260506113033 57 329 2.0 0.0 0.00 0.00 0.00 76 1010.6
20260506111530 57 302 3.0 0.0 0.00 0.00 0.00 77 1010.4
20260506110033 57 333 4.0 0.0 0.00 0.00 0.00 77 1009.8
20260506104525 57 5 3.0 0.0 0.00 0.00 0.00 77 1009.9
20260506103023 58 281 5.0 0.0 0.00 0.00 0.00 77 1009.6
20260506101521 58 9 3.0 0.0 0.00 0.00 0.00 77 1009.0
20260506100023 58 292 2.0 0.0 0.00 0.00 0.00 77 1008.9
20260506094516 58 264 4.0 0.0 0.00 0.00 0.00 77 1008.7
20260506093013 59 277 3.0 0.0 0.00 0.00 0.00 77 1008.7
20260506091511 59 285 4.0 0.0 0.00 0.00 0.00 77 1008.6
20260506090008 59 299 3.0 0.0 0.00 0.00 0.00 78 1008.6
20260506084507 60 327 4.0 0.0 0.00 0.00 0.00 77 1008.5
20260506083004 60 305 3.0 0.0 0.00 0.00 0.00 78 1008.2
20260506081502 61 315 2.0 0.0 0.00 0.00 0.00 77 1008.1
20260506080104 61 332 2.0 0.0 0.00 0.00 0.00 78 1008.1
20260506073056 61 17 1.0 0.0 0.00 0.00 0.00 78 1007.7
20260506071600 61 29 1.0 0.0 0.00 0.00 0.00 79 1007.8
20260506061549 62 15 3.0 0.0 0.00 0.00 0.00 77 1007.6
20260506044540 65 309 3.0 0.0 0.00 0.00 0.00 75 1007.5
20260506043030 66 57 3.0 0.0 0.00 0.00 0.00 74 1007.5
20260506041527 67 290 4.0 0.0 0.00 0.00 0.00 74 1007.6
20260506040023 68 321 4.0 0.0 0.00 0.00 0.00 73 1007.5
20260506034520 68 19 2.0 0.0 0.00 0.00 0.00 72 1007.1
20260506033026 68 283 3.0 0.0 0.00 0.00 0.00 71 1006.8
20260506031528 69 351 3.0 0.0 0.00 0.00 0.00 70 1006.4
20260506030033 70 281 3.0 0.0 0.00 0.00 0.00 69 1006.0
20260506024521 70 17 3.0 0.0 0.00 0.00 0.00 69 1006.0
20260506023009 71 360 3.0 0.0 0.00 0.00 0.00 68 1005.6
20260506021508 72 19 4.0 0.0 0.00 0.00 0.00 69 1005.4
20260506020005 73 319 4.0 0.0 0.00 0.00 0.00 68 1005.0
20260506014503 73 25 4.0 0.0 0.00 0.00 0.00 67 1004.5
20260506013103 74 41 4.0 0.0 0.00 0.00 0.00 67 1004.2
20260506011559 75 340 3.0 0.0 0.00 0.00 0.00 67 1003.7
20260506010106 75 322 4.0 0.0 0.00 0.00 0.00 65 1003.6
20260506004558 76 330 3.0 0.0 0.00 0.00 0.00 63 1003.5
20260506003058 77 5 2.0 0.0 0.00 0.00 0.00 62 1003.0
20260506001601 77 285 2.0 0.0 0.00 0.00 0.00 62 1003.2
20260506000100 78 355 5.0 0.0 0.00 0.00 0.00 61 1003.3
20260505234556 79 328 4.0 0.0 0.00 0.00 0.00 59 1002.9
20260505233112 80 32 4.0 0.0 0.00 0.00 0.00 59 1002.7
20260505231555 83 22 6.0 0.0 0.00 0.00 0.00 58 1002.4
20260505230054 85 314 5.0 0.0 0.00 0.00 0.00 52 1002.1
20260505224554 87 319 5.0 0.0 0.00 0.00 0.00 47 1002.1
20260505223052 89 292 2.0 0.0 0.00 0.00 0.00 47 1001.8
20260505221601 90 219 1.0 0.0 0.00 0.00 0.00 49 1001.7
20260505220053 90 185 1.0 0.0 0.00 0.00 0.00 49 1001.5
20260505214550 91 184 1.0 0.0 0.00 0.00 0.00 43 1001.7
20260505213050 91 175 2.0 0.0 0.00 0.00 0.00 47 1001.7
20260505211548 91 169 3.0 0.0 0.00 0.00 0.00 47 1001.7